Voltar ao catálogo

STARLINK-4267

AtivoComunicaçõesVLEO
NORAD 52864·PAYLOAD·🇺🇸 United States

Lançado Jun 17, 2022 de Cape Canaveral Space Force Station

Loading…

Próximas Passagens (próximas 24 horas)

TLE

AtualizadoSource: CelesTrak SupGP

Época: Sep 15, 2026, 01:50 UTC

1 52864C 22062AL  26258.07687500 -.00020598  00000+0 -60858-3 0  2586
2 52864  53.1586 242.7191 0001264  89.2391  86.0162 15.34400656    14

Acompanhe STARLINK-4267 em tempo real com AllMySat

Download on the App Store